Regional Weather Roundup
Issued by NWS

Home | Current Version | Previous Version | Graphics & Text | Print | Product List | Glossary Off
Versions: 1 2 3 4 5 6 7 8 9 10 11 12 13 14 15 16 17 18 19 20 21 22 23 24 25 26 27 28 29 30 31 32 33 34 35 36 37 38 39 40 41 42 43 44 45 46 47 48 49 50

000
ASUS43 KLMK 291410
RWRKY
KENTUCKY REGIONAL WEATHER ROUNDUP
NATIONAL WEATHER SERVICE LOUISVILLE KY
1000 AM EDT FRI AUG 29 2014

NOTE "FAIR" INDICATES FEW OR NO CLOUDS BELOW 12,000 FEET
WITH NO SIGNIFICANT WEATHER AND/OR OBSTRUCTIONS TO VISIBILITY.

KYZ001>023-026-027-061>063-070>075-291500-
WESTERN AND SOUTH CENTRAL KENTUCKY

CITY           SKY/WX    TMP DP  RH WIND       PRES   REMARKS
PADUCAH        SUNNY     81  73  76 VRB6      29.98S
HENDERSON      SUNNY     79  72  78 S5        30.00S
OWENSBORO      MOSUNNY  N/A N/A N/A SE8       30.02R
HOPKINSVILLE   SUNNY     80  72  78 SE5       30.02R
BOWLING GREEN  SUNNY     79  72  79 S3        30.04S
GLASGOW        SUNNY     79  71  75 S3        30.05S
$$

KYZ024-025-028>034-038-045-046-053-291500-
NORTH CENTRAL KENTUCKY

CITY           SKY/WX    TMP DP  RH WIND       PRES   REMARKS
LOUISVILLE/SDF PTSUNNY   79  68  69 SE7       30.05S
LOUISVILLE/LOU MOSUNNY   77  67  71 VRB5      30.06S
FORT KNOX      MOSUNNY   79  72  78 E7        30.05R
$$

KYZ035>037-039>044-047>052-055>060-089>105-291500-
NORTHEAST KENTUCKY

CITY           SKY/WX    TMP DP  RH WIND       PRES   REMARKS
LEXINGTON      SUNNY     78  66  66 SE6       30.10R
COVINGTON      MOSUNNY   74  62  66 SE8       30.10S
FRANKFORT      MOSUNNY   75  66  73 E5        30.08S
$$

KYZ054-064>069-076>088-106>120-291500-
SOUTHEAST KENTUCKY

CITY           SKY/WX    TMP DP  RH WIND       PRES   REMARKS
JACKSON        SUNNY     73  65  75 SE3       30.13R
LONDON         SUNNY     78  70  76 CALM      30.11S
SOMERSET       SUNNY     77  72  83 CALM      30.10S
MIDDLESBORO    CLOUDY    72  69  90 CALM      30.13R
MONTICELLO     MOSUNNY   80  73  79 CALM      30.10S
$$



USA.gov is the U.S. government's official web portal to all federal, state and local government web resources and services.